TimeEST,TemperatureF,Dew PointF,Humidity,Sea Level PressureIn,VisibilityMPH,Wind Direction,Wind SpeedMPH,Gust SpeedMPH,PrecipitationIn,Events,Conditions,WindDirDegrees,DateUTC
12:00 AM,28.4,28.4,100,30.04,6.0,NNE,6.9,-,N/A,Rain,Light Freezing Rain,30,2013-01-12 05:00:00
1:00 AM,30.2,28.4,93,30.04,4.0,NE,5.8,-,N/A,Rain,Light Freezing Rain,50,2013-01-12 06:00:00
1:42 AM,30.2,28.4,93,30.04,2.0,NNE,4.6,-,N/A,,Light Freezing Drizzle,20,2013-01-12 06:42:00
2:00 AM,30.2,28.4,93,30.04,2.0,NNE,4.6,-,N/A,,Light Freezing Drizzle,20,2013-01-12 07:00:00
2:24 AM,30.2,30.2,100,30.05,1.0,North,8.1,-,N/A,,Light Freezing Drizzle,10,2013-01-12 07:24:00
3:00 AM,30.2,30.2,100,30.04,1.0,NNE,6.9,-,N/A,,Light Freezing Drizzle,30,2013-01-12 08:00:00
3:37 AM,30.2,30.2,100,30.04,0.8,NE,5.8,-,N/A,,Light Freezing Drizzle,40,2013-01-12 08:37:00
4:00 AM,30.2,30.2,100,30.03,0.5,NE,5.8,-,N/A,Fog,Light Freezing Drizzle,50,2013-01-12 09:00:00
5:00 AM,32.0,32.0,100,30.04,0.5,North,2.3,-,N/A,Fog,Light Freezing Drizzle,10,2013-01-12 10:00:00
6:00 AM,32.0,32.0,100,30.06,0.5,NE,3.5,-,N/A,Fog,Light Freezing Drizzle,40,2013-01-12 11:00:00
7:00 AM,32.0,32.0,100,30.05,0.8,NE,3.5,-,N/A,,Light Freezing Drizzle,50,2013-01-12 12:00:00
8:00 AM,32.0,32.0,100,30.06,0.6,NNE,3.5,-,N/A,,Light Drizzle,30,2013-01-12 13:00:00
9:00 AM,32.0,32.0,100,30.07,0.6,NE,3.5,-,N/A,,Light Drizzle,40,2013-01-12 14:00:00
10:00 AM,32.0,32.0,100,30.06,0.6,NE,3.5,-,N/A,,Light Drizzle,50,2013-01-12 15:00:00
10:24 AM,32.0,32.0,100,30.05,0.5,NE,3.5,-,N/A,Fog,Fog,40,2013-01-12 15:24:00
11:00 AM,32.0,32.0,100,30.04,0.5,NNE,4.6,-,N/A,Fog,Fog,30,2013-01-12 16:00:00
12:00 PM,33.8,33.8,100,30.00,0.5,ENE,3.5,-,N/A,Fog,Fog,60,2013-01-12 17:00:00
12:46 PM,33.8,33.8,100,30.01,0.8,North,4.6,-,N/A,,Mist,360,2013-01-12 17:46:00
1:00 PM,33.8,33.8,100,30.01,0.8,NNE,4.6,-,N/A,,Mist,20,2013-01-12 18:00:00
2:00 PM,35.6,33.8,93,30.01,1.0,NNE,4.6,-,N/A,,Overcast,30,2013-01-12 19:00:00
3:00 PM,35.6,33.8,93,30.01,2.0,North,4.6,-,N/A,,Overcast,360,2013-01-12 20:00:00
3:41 PM,35.6,33.8,93,30.00,0.8,NNE,2.3,-,N/A,,Overcast,30,2013-01-12 20:41:00
4:00 PM,35.6,35.6,100,30.01,1.0,NNE,3.5,-,N/A,,Overcast,30,2013-01-12 21:00:00
5:00 PM,33.8,33.8,100,30.00,0.8,NNW,2.3,-,N/A,,Mostly Cloudy,330,2013-01-12 22:00:00
6:00 PM,33.8,33.8,100,30.00,2.0,Calm,Calm,-,N/A,,Overcast,0,2013-01-12 23:00:00
7:00 PM,35.6,33.8,93,30.01,2.0,East,3.5,-,N/A,,Overcast,80,2013-01-13 00:00:00
8:00 PM,35.6,35.6,100,30.00,2.5,Calm,Calm,-,N/A,,Overcast,0,2013-01-13 01:00:00
9:00 PM,35.6,35.6,100,30.01,3.0,Calm,Calm,-,N/A,,Overcast,0,2013-01-13 02:00:00
10:00 PM,33.8,33.8,100,30.01,3.0,Calm,Calm,-,N/A,,Overcast,0,2013-01-13 03:00:00
11:00 PM,35.6,33.8,93,30.02,3.0,Calm,Calm,-,N/A,,Overcast,0,2013-01-13 04:00:00